Date String (YYYY-MM-DD hh:mm:ss) UTC,Instrument flags,Ambient pressure (hPa),Sample flow (lpm),Bypass flow (lpm),Sample temperature (°C),Ambient temperature (°C),ASC tube jacket temperature (°C),LED temperature (°C),Box temperature (°C),Sample RH (%),Span deviation,Mass concentration (μg/m³),Mass concentration (μg/m³),Mass concentration (μg/m³)
DateTimeUTC,F1_M11,P_M11,Q1_M11,Q2_M11,T1_M11,T2_M11,T3_M11,T4_M11,T5_M11,U1_M11,ZSPAN_M11,X0_M11,X2_M11,X1_M11
2023-02-15 23:00:00,,0823.4,5.01,0.00,22.9,21.1,00.0,31.9,24.6,07.8,0000.0,0003.68,0002.46,0002.02
2023-02-15 23:01:00,,0823.4,5.05,0.00,22.9,20.9,00.0,31.9,24.5,07.8,0000.0,0003.68,0002.48,0002.02
2023-02-15 23:02:00,,0823.4,5.05,0.00,22.9,21.0,00.0,31.8,24.5,07.9,0000.0,0003.54,0002.43,0002.03
2023-02-15 23:03:00,,0823.4,4.99,0.00,22.9,21.9,00.0,31.8,24.7,07.9,0000.0,0003.46,0002.40,0002.04
2023-02-15 23:04:00,,0823.4,4.96,0.00,23.0,22.9,00.0,31.8,25.0,07.8,0000.0,0003.58,0002.44,0002.05
2023-02-15 23:05:00,,0823.4,4.96,0.00,23.1,23.3,00.0,31.8,25.0,07.8,0000.0,0004.58,0002.46,0002.06
2023-02-15 23:06:00,,0823.3,5.02,0.00,23.1,22.8,00.0,31.8,25.0,07.8,0000.0,0004.94,0002.47,0002.07
2023-02-15 23:07:00,,0823.3,5.03,0.00,23.1,22.3,00.0,31.9,24.9,07.8,0000.0,0005.13,0002.55,0002.08
2023-02-15 23:08:00,,0823.4,4.99,0.00,23.1,21.9,00.0,31.9,24.8,07.9,0000.0,0005.31,0002.57,0002.08
2023-02-15 23:09:00,,0823.3,5.00,0.00,23.0,21.6,00.0,31.9,24.7,07.9,0000.0,0005.35,0002.58,0002.09
2023-02-15 23:10:00,,0823.3,4.99,0.00,23.0,21.4,00.0,31.9,24.7,07.9,0000.0,0005.26,0002.58,0002.10
2023-02-15 23:11:00,,0823.4,5.01,0.00,22.9,21.2,00.0,31.9,24.6,07.9,0000.0,0005.47,0002.60,0002.12
2023-02-15 23:12:00,,0823.4,5.00,0.00,22.9,21.1,00.0,31.8,24.5,07.9,0000.0,0005.90,0002.62,0002.15
2023-02-15 23:13:00,,0823.4,4.99,0.00,22.9,20.9,00.0,31.8,24.5,07.9,0000.0,0007.02,0002.69,0002.19
2023-02-15 23:14:00,,0823.4,5.01,0.00,22.8,20.9,00.0,31.8,24.5,07.8,0000.0,0007.09,0002.71,0002.22
2023-02-15 23:15:00,,0823.4,4.99,0.00,22.8,21.1,00.0,31.8,24.5,07.8,0000.0,0007.02,0002.72,0002.24
2023-02-15 23:16:00,,0823.5,4.99,0.00,22.9,22.1,00.0,31.7,24.7,07.8,0000.0,0007.21,0002.77,0002.28
2023-02-15 23:17:00,,0823.6,4.98,0.00,23.0,23.1,00.0,31.7,25.0,07.8,0000.0,0007.17,0002.80,0002.31
2023-02-15 23:18:00,,0823.6,4.95,0.00,23.1,23.2,00.0,31.8,25.0,07.8,0000.0,0007.08,0002.79,0002.33
2023-02-15 23:19:00,,0823.7,5.02,0.00,23.1,22.6,00.0,31.8,24.9,07.8,0000.0,0006.94,0002.79,0002.36
2023-02-15 23:20:00,,0823.7,5.02,0.00,23.0,22.2,00.0,31.8,24.8,07.8,0000.0,0006.91,0002.81,0002.38
2023-02-15 23:21:00,,0823.7,5.00,0.00,23.0,21.8,00.0,31.8,24.7,07.8,0000.0,0007.25,0002.81,0002.39
2023-02-15 23:22:00,,0823.7,4.98,0.00,23.0,21.6,00.0,31.8,24.6,07.8,0000.0,0007.37,0002.87,0002.41
2023-02-15 23:23:00,,0823.7,4.98,0.00,22.9,21.3,00.0,31.8,24.6,07.9,0000.0,0007.17,0002.89,0002.42
2023-02-15 23:24:00,,0823.7,5.01,0.00,22.9,21.2,00.0,31.8,24.5,07.9,0000.0,0006.03,0002.88,0002.42
2023-02-15 23:25:00,,0823.7,5.00,0.00,22.9,21.0,00.0,31.8,24.5,07.9,0000.0,0005.91,0002.87,0002.43
2023-02-15 23:26:00,,0823.7,5.03,0.00,22.8,20.9,00.0,31.8,24.5,07.8,0000.0,0005.96,0002.90,0002.45
2023-02-15 23:27:00,,0823.7,5.03,0.00,22.8,21.3,00.0,31.7,24.5,07.7,0000.0,0005.12,0002.92,0002.48
2023-02-15 23:28:00,,0823.7,5.04,0.00,22.9,22.4,00.0,31.7,24.8,07.6,0000.0,0005.34,0002.98,0002.50
2023-02-15 23:29:00,,0823.7,5.10,0.00,23.0,23.2,00.0,31.7,25.0,07.6,0000.0,0006.57,0003.03,0002.52
2023-02-15 23:30:00,,0823.6,5.00,0.00,23.1,22.9,00.0,31.8,24.9,07.5,0000.0,0006.57,0003.04,0002.53
2023-02-15 23:31:00,,0823.6,5.03,0.00,23.0,22.3,00.0,31.8,24.8,07.6,0000.0,0006.53,0003.04,0002.54
2023-02-15 23:32:00,,0823.7,4.99,0.00,23.0,21.9,00.0,31.8,24.7,07.6,0000.0,0006.54,0003.03,0002.55
2023-02-15 23:33:00,,0823.6,5.00,0.00,23.0,21.6,00.0,31.8,24.7,07.6,0000.0,0006.61,0003.00,0002.56
2023-02-15 23:34:00,,0823.7,5.00,0.00,22.9,21.4,00.0,31.8,24.6,07.6,0000.0,0006.50,0002.96,0002.57
2023-02-15 23:35:00,,0823.7,5.01,0.00,22.9,21.2,00.0,31.8,24.6,07.6,0000.0,0006.50,0002.98,0002.60
2023-02-15 23:36:00,,0823.7,5.03,0.00,22.9,21.1,00.0,31.8,24.5,07.7,0000.0,0006.57,0003.00,0002.62
2023-02-15 23:37:00,,0823.6,4.99,0.00,22.8,21.0,00.0,31.8,24.5,07.7,0000.0,0007.48,0002.98,0002.62
2023-02-15 23:38:00,,0823.7,5.01,0.00,22.8,20.9,00.0,31.7,24.4,07.8,0000.0,0008.03,0002.92,0002.61
2023-02-15 23:39:00,,0823.7,5.02,0.00,22.8,21.6,00.0,31.7,24.6,07.8,0000.0,0007.90,0002.92,0002.60
2023-02-15 23:40:00,,0823.7,5.02,0.00,22.9,22.6,00.0,31.7,24.8,07.7,0000.0,0007.62,0002.98,0002.60
2023-02-15 23:41:00,,0823.7,5.02,0.00,23.0,23.3,00.0,31.7,25.0,07.7,0000.0,0007.77,0003.00,0002.62
2023-02-15 23:42:00,,0823.7,4.98,0.00,23.0,22.9,00.0,31.8,24.9,07.7,0000.0,0008.11,0003.04,0002.65
2023-02-15 23:43:00,,0823.7,5.02,0.00,23.0,22.4,00.0,31.8,24.8,07.7,0000.0,0008.22,0003.07,0002.69
2023-02-15 23:44:00,,0823.7,4.98,0.00,23.0,21.9,00.0,31.8,24.7,07.7,0000.0,0008.21,0003.12,0002.72
2023-02-15 23:45:00,,0823.7,4.99,0.00,23.0,21.6,00.0,31.8,24.7,07.8,0000.0,0008.36,0003.16,0002.76
2023-02-15 23:46:00,,0823.7,5.00,0.00,22.9,21.4,00.0,31.8,24.6,07.8,0000.0,0009.06,0003.19,0002.80
2023-02-15 23:47:00,,0823.7,4.99,0.00,22.9,21.2,00.0,31.8,24.6,07.8,0000.0,0009.12,0003.23,0002.84
2023-02-15 23:48:00,,0823.7,5.01,0.00,22.9,21.0,00.0,31.8,24.5,07.8,0000.0,0008.57,0003.27,0002.89
2023-02-15 23:49:00,,0823.7,5.00,0.00,22.8,20.9,00.0,31.8,24.5,07.8,0000.0,0007.98,0003.33,0002.94
2023-02-15 23:50:00,,0823.7,5.01,0.00,22.8,21.0,00.0,31.7,24.4,07.7,0000.0,0007.91,0003.35,0002.99
2023-02-15 23:51:00,,0823.7,5.00,0.00,22.8,21.9,00.0,31.7,24.6,07.7,0000.0,0007.55,0003.32,0003.02
2023-02-15 23:52:00,,0823.7,5.00,0.00,22.9,22.9,00.0,31.7,24.9,07.6,0000.0,0007.42,0003.33,0003.05
2023-02-15 23:53:00,,0823.7,5.01,0.00,23.0,23.2,00.0,31.7,25.0,07.6,0000.0,0006.85,0003.33,0003.04
2023-02-15 23:54:00,,0823.7,5.00,0.00,23.0,22.5,00.0,31.7,24.8,07.6,0000.0,0006.50,0003.35,0003.04
2023-02-15 23:55:00,,0823.7,5.00,0.00,23.0,21.9,00.0,31.8,24.7,07.6,0000.0,0006.39,0003.36,0003.05
2023-02-15 23:56:00,,0823.7,5.01,0.00,22.9,21.5,00.0,31.8,24.6,07.6,0000.0,0006.50,0003.37,0003.07
2023-02-15 23:57:00,,0823.7,4.98,0.00,22.9,21.2,00.0,31.8,24.5,07.7,0000.0,0006.50,0003.39,0003.07
2023-02-15 23:58:00,,0823.7,5.02,0.00,22.8,21.0,00.0,31.7,24.5,07.7,0000.0,0006.25,0003.38,0003.08
2023-02-15 23:59:00,,0823.7,5.00,0.00,22.8,20.9,00.0,31.7,24.4,07.7,0000.0,0006.27,0003.38,0003.09
